Florence, SC

12:57 PM EST on December 11, 2017 (GMT -0500)
Florence Regional

Weather History for KFLO - July, 2013

Change the Weather History Date:

Monday, July 29, 2013

  Actual Average Record
Temperature  
Mean Temperature 82 °F 81 °F  
Max Temperature 90 °F 91 °F 103 °F (1993)
Min Temperature 73 °F 72 °F 66 °F (1984)
Degree Days  
Heating Degree Days 0 0  
Month to date heating degree days 0 0  
Since 1 June heating degree days 0 1  
Since 1 July heating degree days 0 0  
Cooling Degree Days 17 16  
Month to date cooling degree days 464 464  
Year to date cooling degree days 1155 1168  
Since 1 June cooling degree days 888 861  
Growing Degree Days 31 (Base 50)    
Moisture  
Dew Point 73 °F    
Average Humidity 77    
Maximum Humidity 94    
Minimum Humidity 59    
Precipitation  
Precipitation 0.65 in 0.18 in 3.55 in (1959)
Month to date precipitation 13.82 4.89  
Year to date precipitation 40.93 24.87  
Sea Level Pressure  
Sea Level Pressure 30.07 in    
Wind  
Wind Speed 4 mph (SW)    
Max Wind Speed 24 mph    
Max Gust Speed 37 mph    
Visibility 6 miles    
Events Rain , Thunderstorm    
T = Trace of Precipitation, MM = Missing Value Source: NWS Daily Summary

Daily Weather History Graph

Daily Weather History Graph

Search for Another Location

Airport or City:

Trip Planner

Search our weather history database for the weather conditions in past years. The results will help you decide how hot, cold, wet, or windy it might be!

Date:

Astronomy

Jul. 29, 2013 Rise Set
Actual Time 6:27 AM EDT 8:22 PM EDT
Civil Twilight 6:00 AM EDT 8:49 PM EDT
Nautical Twilight 5:26 AM EDT 9:23 PM EDT
Astronomical Twilight 4:50 AM EDT 9:58 PM EDT
Moon 12:05 AM EDT (7/29) 1:45 PM EDT (7/29)
Length of Visible Light 14h 49m
Length of Day
13h 54m
Waning Gibbous, 51% of the Moon is Illuminated
Jul 29
Waning Gibbous
Jul 29
Last Quarter
Aug 6
New
Aug 14
First Quarter
Aug 20
Full

Hourly Weather History & Observations

Time (EDT) Temp. Heat Index Dew Point Humidity Pressure Visibility Wind Dir Wind Speed Gust Speed Precip Events Conditions
12:53 AM 78.1 °F - 73.9 °F 87% 30.02 in 8.0 mi Calm Calm - N/A   Clear
1:53 AM 77.0 °F - 73.9 °F 90% 30.02 in 6.0 mi Calm Calm - N/A   Clear
2:53 AM 75.9 °F - 73.9 °F 94% 30.01 in 5.0 mi Calm Calm - N/A   Clear
3:15 AM 75.2 °F - 73.4 °F 94% 30.02 in 4.0 mi South 3.5 mph - N/A   Scattered Clouds
3:24 AM 75.2 °F - 73.4 °F 94% 30.02 in 4.0 mi South 5.8 mph - N/A   Mostly Cloudy
3:42 AM 75.2 °F - 73.4 °F 94% 30.02 in 4.0 mi SSW 4.6 mph - N/A   Scattered Clouds
3:53 AM 75.9 °F - 73.9 °F 94% 30.01 in 4.0 mi South 4.6 mph - N/A   Partly Cloudy
4:31 AM 75.2 °F - 73.4 °F 94% 30.02 in 3.0 mi South 4.6 mph - N/A   Mostly Cloudy
4:53 AM 75.9 °F - 73.9 °F 94% 30.02 in 3.0 mi SSW 4.6 mph - N/A   Overcast
5:31 AM 75.2 °F - 73.4 °F 94% 30.03 in 4.0 mi SW 5.8 mph - N/A   Scattered Clouds
5:53 AM 75.9 °F - 73.9 °F 94% 30.03 in 4.0 mi SSW 4.6 mph - N/A   Clear
6:11 AM 75.2 °F - 73.4 °F 94% 30.04 in 4.0 mi Calm Calm - N/A   Partly Cloudy
6:34 AM 75.2 °F - 73.4 °F 94% 30.05 in 2.0 mi Calm Calm - N/A   Mostly Cloudy
6:53 AM 75.0 °F - 73.0 °F 94% 30.05 in 2.0 mi Calm Calm - N/A   Mostly Cloudy
7:53 AM 77.0 °F - 73.9 °F 90% 30.05 in 2.5 mi South 3.5 mph - N/A   Mostly Cloudy
7:55 AM 77.0 °F - 73.4 °F 89% 30.06 in 3.0 mi Calm Calm - N/A   Scattered Clouds
8:46 AM 78.8 °F - 73.4 °F 83% 30.08 in 6.0 mi West 4.6 mph - N/A   Haze
8:53 AM 78.1 °F - 73.9 °F 87% 30.07 in 6.0 mi West 5.8 mph - N/A   Mostly Cloudy
9:53 AM 82.0 °F 88.6 °F 75.0 °F 79% 30.08 in 7.0 mi SW 3.5 mph - N/A   Mostly Cloudy
10:53 AM 84.0 °F 91.2 °F 73.9 °F 72% 30.09 in 8.0 mi Calm Calm - N/A   Mostly Cloudy
11:00 AM 84.2 °F 90.9 °F 73.4 °F 70% 30.10 in 8.0 mi Calm Calm - N/A   Overcast
11:38 AM 86.0 °F 95.1 °F 75.2 °F 70% 30.10 in 9.0 mi West 3.5 mph - N/A   Scattered Clouds
11:53 AM 86.0 °F 95.1 °F 75.0 °F 70% 30.09 in 9.0 mi WNW 4.6 mph - N/A   Scattered Clouds
12:53 PM 88.0 °F 95.6 °F 73.0 °F 61% 30.08 in 10.0 mi Calm Calm - N/A   Partly Cloudy
1:53 PM 87.1 °F 95.4 °F 73.9 °F 65% 30.07 in 10.0 mi SW 6.9 mph - N/A   Clear
2:53 PM 88.0 °F 97.5 °F 75.0 °F 65% 30.04 in 10.0 mi SW 8.1 mph - N/A   Clear
3:53 PM 89.1 °F 97.0 °F 73.0 °F 59% 30.05 in 10.0 mi SSW 6.9 mph - N/A   Mostly Cloudy
4:53 PM 87.1 °F 96.3 °F 75.0 °F 67% 30.06 in 10.0 mi SSW 9.2 mph - N/A   Mostly Cloudy
5:18 PM 80.6 °F 84.6 °F 71.6 °F 74% 30.07 in 2.0 mi West 24.2 mph 29.9 mph 0.05 in Rain , Thunderstorm Light Thunderstorms and Rain
5:22 PM 75.2 °F - 69.8 °F 83% 30.08 in 0.8 mi WNW 24.2 mph 36.8 mph 0.21 in Rain , Thunderstorm Heavy Thunderstorms and Rain
5:30 PM 78.8 °F - 66.2 °F 65% 30.08 in 0.2 mi Variable 6.9 mph 36.8 mph 0.65 in Rain Heavy Rain
5:33 PM 80.6 °F 83.2 °F 68.0 °F 65% 30.07 in 0.5 mi Variable 6.9 mph 19.6 mph 0.65 in Rain Light Rain
5:36 PM 80.6 °F 83.9 °F 69.8 °F 70% 30.07 in 2.0 mi SSW 5.8 mph - 0.65 in Rain Light Rain
5:43 PM 82.4 °F 87.2 °F 71.6 °F 70% 30.07 in 10.0 mi SSW 4.6 mph - 0.65 in   Scattered Clouds
5:53 PM 82.9 °F 88.8 °F 73.0 °F 72% 30.07 in 10.0 mi SW 5.8 mph - 0.65 in   Clear
6:53 PM 84.0 °F 89.6 °F 72.0 °F 67% 30.08 in 10.0 mi SW 5.8 mph - N/A   Clear
7:53 PM 80.1 °F 83.6 °F 71.1 °F 74% 30.12 in 10.0 mi South 6.9 mph - N/A   Mostly Cloudy
8:53 PM 77.0 °F - 73.0 °F 88% 30.14 in 10.0 mi SSE 6.9 mph - N/A   Clear
9:53 PM 75.0 °F - 72.0 °F 90% 30.15 in 10.0 mi Calm Calm - N/A   Clear
10:53 PM 73.9 °F - 71.1 °F 91% 30.14 in 8.0 mi Calm Calm - N/A   Clear
11:53 PM 73.9 °F - 71.1 °F 91% 30.15 in 9.0 mi SSW 3.5 mph - N/A   Clear